Zurück zum Katalog

SAC C

AktivWissenschaftSSO
NORAD 26620·PAYLOAD·🇦🇷 Argentina

Gestartet Nov 21, 2000 von Vandenberg Space Force Base

Loading…

Nächste Überflüge (nächste 24 Stunden)

TLE

AktuellSource: Space-Track

Epoche: Sep 14, 2026, 12:51 UTC

1 26620U 00075B   26257.53591762  .00000333  00000-0  74766-4 0  9991
2 26620  98.4981 272.0451 0001577  93.2602 266.8779 14.63002360373889

Verfolge SAC C in Echtzeit mit AllMySat

Download on the App Store